Location: Unspecified
(0.0000°N, 0.0000°E)
Time: 19:18:48
(UTC+00:00)

DOVE 4 - Pass Details

Date: 10 December 2017
Orbit: 588 x 804 km, 97.7° (Epoch: 16 January)

Event Time Altitude Azimuth Distance (km) Brightness Sun altitude
Rises 04:35:07 0° 12° (NNE) 2,897 ? -17.8°
Reaches altitude 10° 04:37:20 10° 13° (NNE) 1,968 ? -17.3°
Maximum altitude 04:41:35 85° 98° (E) 605 ? -16.3°
Drops below altitude 10° 04:45:43 10° 190° (S) 1,917 ? -15.4°
Sets 04:47:52 0° 190° (S) 2,816 ? -14.9°
